Location: ????????
(48.4751°N, 37.6926°E)
Time: 13:35:06
(UTC+00:00)

SL-14 R/B - Pass Details

Date: 20 January 2021
Orbit: 520 x 553 km, 82.4° (Epoch: 26 February)

Event Time Altitude Azimuth Distance (km) Brightness Sun altitude
Rises 15:23:56 0° 201° (SSW) 2,642 7.4 -12.2°
Reaches altitude 10° 15:26:06 10° 207° (SSW) 1,762 6.5 -12.5°
Maximum altitude 15:29:52 50° 283° (WNW) 682 4.2 -13.1°
Drops below altitude 10° 15:33:43 10° 0° (N) 1,794 5.8 -13.7°
Sets 15:35:56 0° 6° (N) 2,696 6.6 -14.1°
